Miscellaneous Local Product
Issued by NWS Hastings, NE

Home | Current Version | Previous Version | Graphics & Text | Print | Product List | Glossary On
Versions: 1 2 3 4 5 6 7 8 9 10 11 12 13 14 15 16 17 18 19 20 21 22 23 24 25 26 27 28 29 30 31 32 33 34 35 36 37 38 39 40 41 42 43 44 45 46 47 48 49 50
000
AXUS43 KGID 180502
MISGRI

GID CWA HOURLY WEATHER ROUNDUP
NATIONAL WEATHER SERVICE HASTINGS NE
1100 PM CST WED DEC 17 2014

NOTE: "FAIR" INDICATES FEW OR NO CLOUDS BELOW 12,000 FEET WITH NO
SIGNIFICANT WEATHER AND/OR OBSTRUCTIONS TO VISIBILITY.

...SOUTH CENTRAL NEBRASKA...

CITY           SKY/WX    TMP DP  RH WIND       PRES   REMARKS
GRAND ISLAND   CLOUDY    24  18  77 SE6       30.20S WCI  17
HASTINGS       CLOUDY    25  18  74 SE6       30.18R WCI  18
KEARNEY        CLOUDY    25  18  74 E7        30.17S WCI  17
ORD            CLOUDY    23  20  88 SE7       30.17R WCI  15
YORK           CLOUDY    25 N/A N/A SE7       30.21S WCI  17
AURORA         CLOUDY    25  20  81 SE7       30.20R WCI  17
LEXINGTON      CLOUDY    25  24  93 SE6       30.14S FOG     WCI  18
HOLDREGE       CLOUDY    24  21  88 SE7       30.15S WCI  16
HEBRON         CLOUDY    28  19  70 CALM      30.22R

...NEBRASKA PANHANDLE...

CITY           SKY/WX    TMP DP  RH WIND       PRES   REMARKS
CHADRON        FOG       20  19  96 SW5       30.03R VSB 3/4 WCI  13
ALLIANCE       FOG       21  19  92 SW6       30.01R VSB 1/2 WCI  13
SCOTTSBLUFF    FOG       18  17  96 CALM      30.02R VSB 1/4
SIDNEY         FOG       21  19  92 SW12      30.01R VSB 3/4 WCI   9

...WESTERN AND NORTH CENTRAL NEBRASKA...

CITY           SKY/WX    TMP DP  RH WIND       PRES   REMARKS
VALENTINE      CLOUDY    23  20  88 S14       30.09F WCI  11
AINSWORTH      CLOUDY    21  20  96 S5        30.11F FOG     WCI  14
ONEILL         CLOUDY    22  20  95 CALM      30.19S
BROKEN BOW     CLOUDY    24  22  91 S7        30.14R FOG     WCI  16
IMPERIAL       CLOUDY    24  21  88 S6        30.08S FOG     WCI  17
NORTH PLATTE   CLOUDY    23  21  92 S5        30.12R WCI  17
MCCOOK         CLOUDY    25  23  92 SE7       30.13R FOG     WCI  17

...EASTERN NEBRASKA...

CITY           SKY/WX    TMP DP  RH WIND       PRES   REMARKS
NORFOLK        CLOUDY    25  17  72 SE6       30.23R WCI  18
SO SIOUX CITY  CLOUDY    25  18  74 SE5       30.28R WCI  19
TEKAMAH        CLOUDY    27  20  75 E3        30.28R
COLUMBUS       CLOUDY    25  16  68 E7        30.24S WCI  17
ALBION         CLOUDY    24  19  81 SE3       30.21R
OMAHA EPPLEY   CLOUDY    28  19  69 E5        30.28S WCI  23
OFFUTT AFB     CLOUDY    28  20  71 E2        30.26S
MILLARD        CLOUDY    28  19  69 CALM      30.26S
LINCOLN        CLOUDY    27  18  69 E6        30.26S WCI  20
NEBRASKA CITY  CLOUDY    28  20  72 CALM      30.26S
BEATRICE       CLOUDY    27  21  77 E6        30.23S WCI  21
FALLS CITY     CLOUDY    29  22  75 E5        30.25F WCI  24

...NORTHERN KANSAS...

CITY           SKY/WX    TMP DP  RH WIND       PRES   REMARKS
GOODLAND       LGT SNOW  24  23  96 E5        30.06R FOG     WCI  18
HILL CITY      CLOUDY    26  24  92 E8        30.14S FOG     WCI  18
NORTON         CLOUDY    25  19  80 E7        30.13S WCI  17
PHILLIPSBURG   CLOUDY    28  28 100 E6        30.17S FOG     WCI  22
SMITH CENTER   LGT SNOW  25  23  93 E6        30.18S WCI  18
BELOIT         CLOUDY    27  25  93 CALM      30.20S
HAYS           CLOUDY    27  18  69 E12       30.15R WCI  16
RUSSELL        LGT SNOW  26  25  96 NE6       30.15S VSB 1   WCI  19
CONCORDIA      LGT SNOW  26  22  84 E6        30.21R FOG     WCI  19
SALINA         LGT SNOW  29  27  92 E6        30.21R FOG     WCI  23
TOPEKA         LGT SNOW  30  24  78 NE5       30.26R WCI  25



USA.gov is the U.S. government's official web portal to all federal, state and local government web resources and services.